Address 0xb5a5f89db0a3a5090de20da135eb26067f5df356

Overview

Balance:
0.00032149853 MATIC
My Name Tag:
Not Available

Txn Hash Method
Block
From
To
Value [Txn Fee]
0x9dae00c18b71988efb6c657ba137ea995fd9008c6b94e96f28693fb28a96fd5fTransfer263427812022-05-17 2:21:25199 days 17 hrs ago0xb5a5f89db0a3a5090de20da135eb26067f5df356OUT0x87f70751d283d4d4b7cc16586e2e3afcf528ca7b6.849322 MATIC0.000178500638.50003
0xfe548abd9f36f93f2c41d73fda697c76d2c59305180897d9f3a9866086419fa3Transfer262802662022-05-11 0:57:52205 days 18 hrs ago0xb5a5f89db0a3a5090de20da135eb26067f5df356OUT0x87f70751d283d4d4b7cc16586e2e3afcf528ca7b9.999821 MATIC0.000178500638.50003
0xfc3aad01c3d084879523086e9a1c879783c92e7032946cfb149fffce7584c472Transfer262305312022-05-06 17:47:46210 days 1 hr ago0xb5a5f89db0a3a5090de20da135eb26067f5df356OUT0x87f70751d283d4d4b7cc16586e2e3afcf528ca7b10.05 MATIC0.000178500218.50001
[ Download CSV Export 
Latest 25 internal transaction
Parent Txn Hash Block From To Value
0x3a3f11c7abcdec9b874bf1a87735435efc0c6442c2679b126c385a1721e765b3263022892022-05-13 3:55:37203 days 15 hrs ago 0x7f092e65c688a509737fcd8d0998dd12208f52970xb5a5f89db0a3a5090de20da135eb26067f5df3560.2 MATIC
0x2f83631207d0ecf24746007a65fb07f3c701e3f552b41e1276156e09943b5bf2263012592022-05-13 1:51:35203 days 17 hrs ago 0x7f092e65c688a509737fcd8d0998dd12208f52970xb5a5f89db0a3a5090de20da135eb26067f5df3560.2 MATIC
0x24a194db1e6bb0f5814320c7e7de113d5e39a4164a79b22f8c14da90ade5665b262999772022-05-12 23:16:15203 days 20 hrs ago 0x7f092e65c688a509737fcd8d0998dd12208f52970xb5a5f89db0a3a5090de20da135eb26067f5df3560.2 MATIC
0xe48bb57375e20d7c36f8f8a50411ea24e54b7410c762555799b80deebdb56277262999722022-05-12 23:15:25203 days 20 hrs ago 0x7f092e65c688a509737fcd8d0998dd12208f52970xb5a5f89db0a3a5090de20da135eb26067f5df3560.2 MATIC
0x4c53950393e395cc80595c93253c2e9e161c8a05439399c9c086be017d704a21262963152022-05-12 15:02:17204 days 4 hrs ago 0x7f092e65c688a509737fcd8d0998dd12208f52970xb5a5f89db0a3a5090de20da135eb26067f5df3560.2 MATIC
0x9833ea233122a26d9bc06b5b101389f4a6fff04b88769063452aefcfabe1f702262963062022-05-12 15:00:47204 days 4 hrs ago 0x7f092e65c688a509737fcd8d0998dd12208f52970xb5a5f89db0a3a5090de20da135eb26067f5df3560.2 MATIC
0x3bdbbd236d2921bde54477ee5f4d63606fc44dded9a842e51a2392fb0ee87cf0262963032022-05-12 15:00:17204 days 4 hrs ago 0x7f092e65c688a509737fcd8d0998dd12208f52970xb5a5f89db0a3a5090de20da135eb26067f5df3560.2 MATIC
0xc12d28b2e642aa60d58207603fe76f94065bbfcaeab12f18db9009c38b00b77f262962982022-05-12 14:59:27204 days 4 hrs ago 0x7f092e65c688a509737fcd8d0998dd12208f52970xb5a5f89db0a3a5090de20da135eb26067f5df3560.2 MATIC
0x0a0dced9fcc9501acaa8654f809f95d64c04f21e4fe39c0e8579158307015393262962902022-05-12 14:58:07204 days 4 hrs ago 0x7f092e65c688a509737fcd8d0998dd12208f52970xb5a5f89db0a3a5090de20da135eb26067f5df3560.2 MATIC
0x13aab439c6acfdae98fbfa2f30df6fed018f0989c2d56583c5e9f109b5fdcfbb262962862022-05-12 14:57:27204 days 4 hrs ago 0x7f092e65c688a509737fcd8d0998dd12208f52970xb5a5f89db0a3a5090de20da135eb26067f5df3560.2 MATIC
0x1c46a8249c9c876dbc1bbc3754197e34c1dc31e1b65dc3eafc3d8bc2ae6afcf7262962812022-05-12 14:56:37204 days 4 hrs ago 0x7f092e65c688a509737fcd8d0998dd12208f52970xb5a5f89db0a3a5090de20da135eb26067f5df3560.2 MATIC
0xae3ca51070ee0ed7ad786ed657dd43e9449c38bd146f7ec8c10f0e74c19bf9dc262955922022-05-12 13:12:16204 days 6 hrs ago 0x7f092e65c688a509737fcd8d0998dd12208f52970xb5a5f89db0a3a5090de20da135eb26067f5df3560.2 MATIC
0x96f6965868cb290b2f347d19acfb5ef591fc8a863fa4e652340d73d38d4084d1262925262022-05-12 5:32:18204 days 13 hrs ago 0x7f092e65c688a509737fcd8d0998dd12208f52970xb5a5f89db0a3a5090de20da135eb26067f5df3560.2 MATIC
0x576cb0596ddc4f741093f2c9f801d170b61bf809880bba1272adc9569d790f18262921522022-05-12 4:36:02204 days 14 hrs ago 0x7f092e65c688a509737fcd8d0998dd12208f52970xb5a5f89db0a3a5090de20da135eb26067f5df3560.2 MATIC
0x8cff411e5a64f5c4e29d4fdc8af25ad0a0a00780f9ce4a78dc9387ff210b2fd3262912422022-05-12 2:20:43204 days 17 hrs ago 0x7f092e65c688a509737fcd8d0998dd12208f52970xb5a5f89db0a3a5090de20da135eb26067f5df3560.2 MATIC
0x76957f204187145278b0fe88e8ca95e9e0d25402563ffb70cd5ca4c14d44a20f262900152022-05-11 23:38:34204 days 19 hrs ago 0x7f092e65c688a509737fcd8d0998dd12208f52970xb5a5f89db0a3a5090de20da135eb26067f5df3560.2 MATIC
0xc01d56b56a04dd996a32b826f7d89d37b600803bc7c2e6e4aaf3dd2b4ad19377262896532022-05-11 22:54:08204 days 20 hrs ago 0x7f092e65c688a509737fcd8d0998dd12208f52970xb5a5f89db0a3a5090de20da135eb26067f5df3560.2 MATIC
0x59206eade34b091f8edada740d5c60f583d017b87a2c4fe7d2f36e0ba5e00266262892962022-05-11 22:05:13204 days 21 hrs ago 0x7f092e65c688a509737fcd8d0998dd12208f52970xb5a5f89db0a3a5090de20da135eb26067f5df3560.2 MATIC
0x0c1ccfb81a3a3cd93707a90feb63976d0919af62dac5cfa26245d448553473fe262889042022-05-11 21:15:47204 days 22 hrs ago 0x7f092e65c688a509737fcd8d0998dd12208f52970xb5a5f89db0a3a5090de20da135eb26067f5df3560.2 MATIC
0x0bb39736386ee6d32e647ddcc803c1324a3ef98d20f04399265bb8d67362a3af262883952022-05-11 20:12:09204 days 23 hrs ago 0x7f092e65c688a509737fcd8d0998dd12208f52970xb5a5f89db0a3a5090de20da135eb26067f5df3560.2 MATIC
0x050b7933b196a12769a516a84ee57715df7c15f327c96b2d9aae5b1bd74a6c09262879102022-05-11 19:07:11205 days 14 mins ago 0x7f092e65c688a509737fcd8d0998dd12208f52970xb5a5f89db0a3a5090de20da135eb26067f5df3560.2 MATIC
0xe06fa93414d3841c49b529fa44327f141d24f27e41f51ed4eaf296f40b9b8bfb262873032022-05-11 17:47:12205 days 1 hr ago 0x7f092e65c688a509737fcd8d0998dd12208f52970xb5a5f89db0a3a5090de20da135eb26067f5df3560.2 MATIC
0x2eee94b6d364feb8aebe279833bd99e63736207dd83036ddfb62b69542d72f20262866792022-05-11 16:29:42205 days 2 hrs ago 0x7f092e65c688a509737fcd8d0998dd12208f52970xb5a5f89db0a3a5090de20da135eb26067f5df3560.2 MATIC
0x719b2000afb32902aa8c06629ccc9b81d37680797d7ceb2ae364372e777ed720262860012022-05-11 15:03:11205 days 4 hrs ago 0x7f092e65c688a509737fcd8d0998dd12208f52970xb5a5f89db0a3a5090de20da135eb26067f5df3560.2 MATIC
0x9e70dc5fec49200b1eff61ac7f45eea5510d70649f6c4246c7409a4e3ddf466a262852292022-05-11 13:20:59205 days 6 hrs ago 0x7f092e65c688a509737fcd8d0998dd12208f52970xb5a5f89db0a3a5090de20da135eb26067f5df3560.2 MATIC
[ Download CSV Export 
Loading

Contract Name:
0 MATIC

Compiler Version
0

Optimization Enabled:
0 MATIC

Other Settings:
-NA-
Block Transaction Gas Used Reward
Age Block Fee Address BC Fee Address Voting Power Jailed Incoming
Block Uncle Number Difficulty Gas Used Reward
Loading